Location: Monroe
(41.9160°N, 83.3980°W)
Time: 05:51:55
(UTC-05:00)

Daily predictions for brighter satellites

Satellite Brightness Start Highest point End
(mag) Time Altitude Azimuth Time Altitude Azimuth Time Altitude Azimuth
Cosmos 2227 Rocket 4.3 04:18:47 22° ENE 04:18:47 22° ENE 04:21:05 10° NE
Cosmos 2333 Rocket 4.0 04:50:14 22° SSE 04:50:14 22° SSE 04:52:12 10° SSE
Cosmos 2219 Rocket 4.4 05:11:11 13° S 05:11:11 13° S 05:11:49 10° S
COSMO-SKYMED 1 3.7 05:16:37 10° SE 05:20:41 42° ENE 05:21:11 40° NE
NOAA 6 4.4 05:21:42 10° NNE 05:26:52 64° ESE 05:32:01 10° S
SeaSat 1 4.4 05:23:53 10° NNE 05:25:11 18° N 05:25:11 18° N
Cosmos 2237 Rocket 2.8 05:36:10 42° SSW 05:36:10 42° SSW 05:40:12 10° S
Feng Yun 1-1 Rocket 4.3 05:29:31 10° N 05:34:02 58° NNW 05:34:02 58° NNW
USA 229 DEB 3.7 05:33:35 42° NNW 05:36:20 88° NE 05:43:36 10° SE
USA 229 3.7 05:33:38 41° NNW 05:36:26 88° NE 05:43:42 10° SE
Cosmos 1500 Rocket 4.4 05:34:37 24° NNE 05:36:59 50° E 05:41:19 10° SSE
SL-16 R/B 2.4 05:35:43 36° N 05:38:04 71° ENE 05:43:42 10° SSE
Tsikada Rocket 3.9 05:33:37 10° N 05:40:01 77° W 05:46:18 10° S
Meteor 2-17 Rocket 4.3 05:42:28 48° SW 05:43:50 60° W 05:49:50 10° N
Cosmos 2297 Rocket 2.1 05:46:56 59° W 05:47:32 62° WNW 05:53:10 10° NNE
SKYMED 3 4.4 05:46:20 10° SSE 05:50:40 90° ENE 05:51:35 56° NNW
Cosmos 220 Rocket 4.3 05:48:19 10° S 05:52:42 69° ESE 05:57:05 10° NNE
Cosmos 783 Rocket 4.4 05:51:33 51° NW 05:52:46 71° WSW 05:57:58 10° S
Aureole 2 Rocket 2.9 05:57:16 65° SW 05:57:16 65° SW 06:01:10 10° S
Cosmos 540 Rocket 3.7 05:58:34 46° WSW 05:58:34 46° WSW 06:03:09 10° S
Cosmos 2227 Rocket 2.7 06:00:39 37° NW 06:00:39 37° NW 06:05:20 10° N
Meteor 1-16 Rocket 4.5 05:56:24 10° S 06:01:48 66° E 06:07:06 10° NNE
Cosmos 1271 Rocket 3.9 05:59:36 10° SSE 06:03:16 43° E 06:06:54 10° NNE
OAO 2 Rocket 4.2 06:04:02 29° SW 06:05:39 37° S 06:10:11 10° ESE
ISS -3.1 06:06:00 62° NE 06:06:00 62° NE 06:09:11 10° ESE
SL-14 R/B 3.6 06:02:53 13° N 06:06:28 67° E 06:10:30 10° SSE
SL-24 R/B 4.4 06:02:39 10° N 06:07:20 69° WNW 06:12:49 10° SSW
Cosmos 304 Rocket 3.6 06:05:04 31° NNW 06:07:20 78° WSW 06:12:06 10° SSE
Cosmos 1725 Rocket 4.2 06:01:31 10° SSW 06:07:25 44° WNW 06:13:25 10° N
SKYMED 2 3.6 06:04:29 10° S 06:08:44 57° W 06:09:51 43° NW
Meteor 1-28 Rocket 3.1 06:05:02 10° SSE 06:08:48 90° NNE 06:10:38 29° NNW
Meteor 1-4 Rocket 2.4 06:08:43 10° SSW 06:12:24 70° W 06:16:11 10° N
CZ-4 R/B 3.0 06:16:15 10° NNE 06:20:01 36° E 06:23:49 10° SSE
Cosmos 1538 Rocket 4.0 06:16:03 12° NNW 06:21:05 87° WSW 06:26:27 10° SSE
USA 234 3.5 06:15:42 10° ESE 06:22:10 65° NE 06:27:25 17° NW
ERBS 3.0 06:23:54 29° NNW 06:25:20 49° NE 06:28:39 10° ESE
Cosmos 1626 3.9 06:23:32 10° N 06:26:58 33° ENE 06:30:22 10° SE
Cosmos 2333 Rocket 4.2 06:32:19 11° WSW 06:32:19 11° WSW 06:32:41 10° SW
NOSS 3-1 (C) 4.1 06:24:46 13° NW 06:31:48 87° ENE 06:40:10 10° SE
Ariane Rocket 2.9 06:28:53 10° N 06:33:56 65° WNW 06:38:58 10° SSW
Coronas F rocket 4.2 06:34:11 10° NE 06:35:42 15° ENE 06:37:12 10° ESE
Cosmos 2221 2.5 06:31:54 10° S 06:36:15 85° E 06:40:35 10° N
SL-8 R/B 4.2 06:34:13 22° NW 06:37:03 52° NNE 06:41:44 10° E
TELKOM 3 3.3 06:36:34 22° SW 06:38:03 64° SSE 06:40:14 10° ENE
CSL-04 Debris 4.1 06:33:45 10° NNE 06:39:17 84° WNW 06:44:44 10° SSW
Cosmos 1603 3.7 06:36:13 10° NNW 06:41:53 85° ENE 06:47:32 10° SSE
ATLAS CENTAUR R/B 4.4 06:42:54 10° NNW 06:45:53 17° NNE 06:51:02 10° ENE
Cosmos 389 Rocket 4.4 06:45:41 10° SSE 06:49:01 34° E 06:52:23 10° NNE
Cosmos 2263 Rocket 4.2 06:45:52 10° SSE 06:50:51 33° ESE 06:55:52 10° NE
AQUARIUS 4.5 06:48:39 10° NNE 06:53:10 71° ESE 06:57:38 10° S
Cosmos 2058 3.1 06:49:18 10° NNW 06:53:15 46° W 06:57:11 10° SSW
COSMO-SKYMED 1 4.0 06:54:07 10° SW 06:57:01 17° W 06:58:24 15° WNW
PAYLOAD A 4.0 06:56:27 10° N 07:01:27 58° WNW 07:06:13 10° SSW
Cosmos 292 Rocket 3.8 06:58:05 10° NNW 07:02:53 87° ENE 07:07:40 10° SSE
CZ-2C R/B 2.2 06:59:06 10° N 07:03:43 80° WNW 07:08:16 10° SSW
Cosmos 1805 Rocket 3.6 07:02:32 10° NNW 07:06:54 58° W 07:11:12 10° S
Cosmos 968 Rocket 4.4 07:04:35 10° WSW 07:09:04 28° WNW 07:13:35 10° N
CSL-04 Rocket 4.1 07:05:01 10° N 07:09:54 38° WNW 07:14:44 10° SW
Cosmos 2227 4.3 07:04:28 10° SW 07:09:57 55° WNW 07:15:29 10° NNE
Cosmos 2151 4.1 07:07:26 10° NW 07:10:44 22° W 07:14:00 10° SW
Helios 1B rocket 2.4 07:07:41 10° SSE 07:11:48 90° WNW 07:15:56 10° NNW
Cosmos 2112 Rocket 4.2 07:06:50 10° NNW 07:12:11 80° ENE 07:17:32 10° SSE
MOS 1 4.4 07:06:41 10° NNE 07:12:26 86° ESE 07:18:08 10° SSW
Genesis I 3.4 07:08:42 10° NW 07:12:35 57° WSW 07:16:24 10° SSE
SMAP 3.0 07:08:41 10° N 07:13:21 73° WNW 07:17:58 10° SSW
Cosmos 2034 Rocket 4.0 07:09:13 10° SSW 07:15:18 62° W 07:21:30 10° N
Cosmos 773 Rocket 4.5 07:12:18 10° NW 07:17:14 41° WSW 07:22:10 10° S
SJ-7 4.4 07:13:21 10° N 07:17:19 63° WNW 07:21:18 10° SSW
Cosmos 1356 Rocket 3.6 07:14:38 10° NNW 07:18:35 47° W 07:22:33 10° S
Cosmos 1703 3.8 07:16:07 10° NNW 07:19:44 37° W 07:23:22 10° SSW
SL-16 R/B 3.7 07:18:09 10° WNW 07:21:29 16° W 07:24:50 10° SW
Nadezhda 4 Rocket 4.0 07:19:05 10° NNW 07:25:24 73° W 07:31:39 10° S
Tiangong 2 3.8 07:23:42 10° SSW 07:26:06 20° SSE 07:28:32 10° E
COSMOS 2441 4.4 07:21:23 10° NNE 07:26:12 85° WNW 07:30:59 10° SSW
Cosmos 1726 4.0 07:26:09 10° SSE 07:29:30 35° E 07:32:53 10° NNE
Cosmos 1340 Rocket 4.3 07:26:54 10° NW 07:29:36 18° W 07:32:17 10° SW
SPOT 3 Rocket 3.6 07:26:12 10° N 07:31:21 65° WNW 07:36:30 10° SSW
